Weather History for KTOI - November, 2013

Change the Weather History Date:

Wednesday, November 13, 2013

  Actual Average Record
Temperature  
Mean Temperature 42 °F 57 °F  
Max Temperature 55 °F 70 °F 79 °F (2005)
Min Temperature 28 °F 43 °F 28 °F (2013)
Degree Days  
Heating Degree Days 23 9  
Month to date heating degree days 100 99  
Since 1 July heating degree days 145 197  
Moisture  
Dew Point 18 °F    
Average Humidity 48    
Maximum Humidity 78    
Minimum Humidity 18    
Precipitation  
Precipitation 0.00 in 0.14 in 0.18 in (1997)
Month to date precipitation 0.67 1.64  
Year to date precipitation 49.25 46.78  
Snow  
Snow 0.00 in - - ()
Month to date snowfall 0.0  
Since 1 July snowfall 0.0  
Since 1 September snowfall 0.0  
Snow Depth 0.00 in    
Sea Level Pressure  
Sea Level Pressure 30.48 in    
Wind  
Wind Speed 8 mph (NNE)    
Max Wind Speed 20 mph    
Max Gust Speed 28 mph    
Visibility 10 miles    
Events      
T = Trace of Precipitation, MM = Missing Value Source: NWS Daily Summary

Daily Weather History Graph

Daily Weather History Graph

Search for Another Location

Airport or City:

Trip Planner

Search our weather history database for the weather conditions in past years. The results will help you decide how hot, cold, wet, or windy it might be!

Date:

Astronomy

Nov. 13, 2013 Rise Set
Actual Time 6:10 AM CST 4:45 PM CST
Civil Twilight 5:45 AM CST 5:11 PM CST
Nautical Twilight 5:15 AM CST 5:40 PM CST
Astronomical Twilight 4:46 AM CST 6:09 PM CST
Moon 2:20 PM CST (11/13) 2:16 AM CST (11/13)
Length of Visible Light 11h 26m
Length of Day
10h 34m
Waxing Gibbous, 85% of the Moon is Illuminated
Nov 13
Waxing Gibbous
Nov 17
Full
Nov 25
Last Quarter
Dec 2
New
Dec 9
First Quarter

Hourly Weather History & Observations

Time (CST) Temp. Windchill Dew Point Humidity Pressure Visibility Wind Dir Wind Speed Gust Speed Precip Events Conditions
12:53 AM 36.0 °F 27.1 °F 17.1 °F 46% 30.44 in 10.0 mi North 13.8 mph - N/A   Clear
1:53 AM 34.0 °F 26.0 °F 17.1 °F 50% 30.44 in 10.0 mi NNE 10.4 mph - N/A   Clear
2:53 AM 34.0 °F 26.6 °F 16.0 °F 48% 30.45 in 10.0 mi NNE 9.2 mph - N/A   Clear
3:53 AM 32.0 °F 24.2 °F 16.0 °F 52% 30.46 in 10.0 mi North 9.2 mph - N/A   Clear
4:53 AM 30.9 °F 22.2 °F 16.0 °F 54% 30.48 in 10.0 mi NNE 10.4 mph - N/A   Clear
5:53 AM 30.0 °F 21.7 °F 17.1 °F 59% 30.51 in 10.0 mi NNE 9.2 mph - N/A   Clear
6:53 AM 32.0 °F 25.6 °F 18.0 °F 56% 30.54 in 10.0 mi NNE 6.9 mph - N/A   Clear
7:53 AM 36.0 °F 27.5 °F 17.1 °F 46% 30.54 in 10.0 mi NE 12.7 mph 26.5 mph N/A   Clear
8:53 AM 41.0 °F 34.3 °F 15.1 °F 35% 30.54 in 10.0 mi ENE 11.5 mph 24.2 mph N/A   Clear
9:53 AM 44.1 °F 38.1 °F 16.0 °F 32% 30.55 in 10.0 mi NE 11.5 mph - N/A   Clear
10:53 AM 48.9 °F - 15.1 °F 26% 30.53 in 10.0 mi NE 12.7 mph 19.6 mph N/A   Clear
11:53 AM 51.1 °F - 12.9 °F 22% 30.51 in 10.0 mi NNE 17.3 mph 21.9 mph N/A   Clear
12:53 PM 53.1 °F - 12.9 °F 20% 30.48 in 10.0 mi NNE 16.1 mph - N/A   Clear
1:53 PM 54.0 °F - 12.0 °F 19% 30.46 in 10.0 mi NNE 11.5 mph 20.7 mph N/A   Clear
2:53 PM 55.0 °F - 12.9 °F 19% 30.45 in 10.0 mi NNE 9.2 mph 17.3 mph N/A   Clear
3:53 PM 53.1 °F - 12.9 °F 20% 30.45 in 10.0 mi NNE 10.4 mph - N/A   Clear
4:53 PM 48.0 °F - 18.0 °F 30% 30.45 in 10.0 mi NNE 4.6 mph - N/A   Clear
5:53 PM 39.0 °F - 24.1 °F 55% 30.47 in 10.0 mi Calm Calm - N/A   Clear
6:53 PM 37.0 °F - 28.0 °F 70% 30.47 in 10.0 mi Calm Calm - N/A   Clear
7:53 PM 33.1 °F - 26.1 °F 75% 30.48 in 10.0 mi Calm Calm - N/A   Clear
8:53 PM 32.0 °F - 26.1 °F 79% 30.48 in 10.0 mi Calm Calm - N/A   Clear
9:53 PM 30.9 °F - 25.0 °F 79% 30.48 in 10.0 mi Calm Calm - N/A   Clear
10:53 PM 30.0 °F - 25.0 °F 82% 30.47 in 10.0 mi Calm Calm - N/A   Clear
11:53 PM 30.0 °F - 25.0 °F 82% 30.45 in 10.0 mi Calm Calm - N/A   Clear